When you browse on this site, cookies collect data to enhance your experience and personalize the content and advertising you see.
Visit our Privacy Policy to learn more. By continuing to use the site, you agree to this use of cookies and data.
  • In Austria
  • List of Countries
  • For 7 days
  • Water Temperature
  • Satellite Maps
  • Weather Map
  • News
  • Weather Widgets
  • user-avatar
    Login

    Hourly Weather Heidelberg

    Today, 10 December, Monday

    Time Temperature Precipitation Wind Pressure Humidity
    00:00 +3°C° 0.2 mm 5 mps 731 mmHg 80%
    01:00 +3°C° 0 mm 5 mps 732 mmHg 79%
    02:00 +3°C° 0.2 mm 5 mps 733 mmHg 79%
    03:00 +2°C° 0.2 mm 5 mps 733 mmHg 80%
    04:00 +2°C° 0.2 mm 5 mps 734 mmHg 80%
    05:00 +2°C° 0.2 mm 5 mps 734 mmHg 80%
    06:00 +2°C° 0.2 mm 5 mps 735 mmHg 80%
    07:00 +1°C° 0 mm 4 mps 735 mmHg 81%
    08:00 +3°C° 0 mm 4 mps 735 mmHg 81%
    09:00 +2°C° 0 mm 5 mps 736 mmHg 80%
    10:00 +2°C° 0 mm 5 mps 736 mmHg 80%
    11:00 +2°C° 0.1 mm 5 mps 736 mmHg 77%
    12:00 +3°C° 0.1 mm 5 mps 736 mmHg 75%
    13:00 +4°C° 0 mm 4 mps 736 mmHg 72%
    14:00 +3°C° 0.1 mm 5 mps 736 mmHg 73%
    15:00 +3°C° 0.1 mm 5 mps 736 mmHg 73%
    16:00 +3°C° 0.1 mm 5 mps 736 mmHg 74%
    17:00 +2°C° 0.4 mm 5 mps 736 mmHg 75%
    18:00 +2°C° 0.4 mm 5 mps 736 mmHg 76%
    19:00 +2°C° 0.4 mm 5 mps 737 mmHg 77%
    20:00 +1°C° 0.2 mm 5 mps 737 mmHg 78%
    21:00 +1°C° 0.2 mm 4 mps 737 mmHg 78%
    22:00 +2°C° 0.2 mm 3 mps 737 mmHg 79%
    23:00 +1°C° 0 mm 3 mps 737 mmHg 80%

    Tomorrow, 11 December, Tuesday

    Time Temperature Precipitation Wind Pressure Humidity
    00:00 +1°C° 0 mm 3 mps 737 mmHg 81%
    01:00 +1°C° 0 mm 3 mps 737 mmHg 81%
    02:00 0°C° 0 mm 3 mps 737 mmHg 82%
    03:00 0°C° 0 mm 3 mps 737 mmHg 83%
    04:00 0°C° 0 mm 3 mps 737 mmHg 84%
    05:00 0°C° 0 mm 3 mps 737 mmHg 85%
    06:00 0°C° 0 mm 3 mps 737 mmHg 86%
    07:00 0°C° 0 mm 3 mps 737 mmHg 86%
    08:00 0°C° 0.1 mm 3 mps 738 mmHg 85%
    09:00 +1°C° 0.1 mm 3 mps 738 mmHg 83%
    10:00 0°C° 0.1 mm 4 mps 738 mmHg 82%
    11:00 +1°C° 0.1 mm 4 mps 738 mmHg 79%
    12:00 +1°C° 0.1 mm 4 mps 738 mmHg 75%
    13:00 +3°C° 0.1 mm 4 mps 738 mmHg 72%
    14:00 +3°C° 0.1 mm 3 mps 738 mmHg 73%
    15:00 +2°C° 0.1 mm 3 mps 737 mmHg 75%
    16:00 +2°C° 0.1 mm 3 mps 737 mmHg 76%
    17:00 +3°C° 0 mm 2 mps 737 mmHg 79%
    18:00 +2°C° 0 mm 2 mps 737 mmHg 81%
    19:00 +1°C° 0 mm 2 mps 737 mmHg 84%
    20:00 +1°C° 0 mm 2 mps 737 mmHg 85%
    21:00 +1°C° 0 mm 2 mps 737 mmHg 86%
    22:00 +1°C° 0 mm 1 mps 737 mmHg 87%
    23:00 +1°C° 0 mm 1 mps 737 mmHg 88%

    Day after tomorrow, 12 December, Wednesday

    Time Temperature Precipitation Wind Pressure Humidity
    00:00 +1°C° 0 mm 1 mps 737 mmHg 88%
    01:00 +1°C° 0 mm 1 mps 737 mmHg 89%
    02:00 +1°C° 0 mm 1 mps 737 mmHg 89%
    03:00 +1°C° 0 mm 1 mps 737 mmHg 89%
    04:00 0°C° 0 mm 1 mps 737 mmHg 89%
    05:00 -1°C° 0 mm 0 mps 737 mmHg 89%
    06:00 -1°C° 0 mm 0 mps 737 mmHg 89%
    07:00 -1°C° 0 mm 0 mps 737 mmHg 90%
    08:00 0°C° 0 mm 0 mps 737 mmHg 88%
    09:00 0°C° 0 mm 0 mps 737 mmHg 86%
    10:00 +1°C° 0 mm 0 mps 738 mmHg 84%
    11:00 +2°C° 0 mm 1 mps 737 mmHg 82%
    12:00 +3°C° 0 mm 1 mps 737 mmHg 79%
    13:00 +4°C° 0 mm 1 mps 737 mmHg 76%
    14:00 +3°C° 0 mm 1 mps 737 mmHg 78%
    15:00 +3°C° 0 mm 1 mps 736 mmHg 79%
    16:00 +2°C° 0 mm 2 mps 736 mmHg 80%
    17:00 +1°C° 0 mm 2 mps 736 mmHg 82%
    18:00 +1°C° 0 mm 2 mps 736 mmHg 83%
    19:00 +1°C° 0 mm 2 mps 736 mmHg 84%
    20:00 +1°C° 0 mm 2 mps 736 mmHg 85%
    21:00 -1°C° 0 mm 2 mps 736 mmHg 86%
    22:00 -1°C° 0 mm 2 mps 736 mmHg 86%
    23:00 -1°C° 0 mm 2 mps 736 mmHg 87%

    13 December, Thursday

    Time Temperature Precipitation Wind Pressure Humidity
    00:00 -1°C° 0 mm 2 mps 735 mmHg 88%
    01:00 -2°C° 0 mm 2 mps 735 mmHg 89%
    02:00 -2°C° 0 mm 2 mps 735 mmHg 89%
    03:00 -2°C° 0 mm 2 mps 734 mmHg 89%
    04:00 -2°C° 0 mm 2 mps 734 mmHg 89%
    05:00 -4°C° 0 mm 3 mps 734 mmHg 88%
    06:00 -4°C° 0 mm 3 mps 733 mmHg 87%
    07:00 -4°C° 0 mm 3 mps 733 mmHg 85%
    08:00 -4°C° 0 mm 3 mps 733 mmHg 82%
    09:00 -3°C° 0 mm 4 mps 733 mmHg 79%
    10:00 -3°C° 0 mm 4 mps 733 mmHg 76%
    11:00 -3°C° 0 mm 4 mps 733 mmHg 74%
    12:00 -2°C° 0 mm 4 mps 733 mmHg 71%
    13:00 -1°C° 0 mm 4 mps 732 mmHg 69%
    14:00 -2°C° 0 mm 4 mps 733 mmHg 69%
    15:00 -2°C° 0 mm 4 mps 733 mmHg 70%
    16:00 -2°C° 0 mm 4 mps 733 mmHg 70%
    17:00 -2°C° 0 mm 4 mps 733 mmHg 71%
    18:00 -3°C° 0 mm 4 mps 733 mmHg 73%
    19:00 -3°C° 0 mm 4 mps 733 mmHg 74%
    20:00 -3°C° 0 mm 4 mps 733 mmHg 75%
    21:00 -4°C° 0 mm 4 mps 734 mmHg 77%
    22:00 -4°C° 0 mm 3 mps 734 mmHg 78%
    23:00 -4°C° 0 mm 3 mps 734 mmHg 79%

    14 December, Friday

    Time Temperature Precipitation Wind Pressure Humidity
    00:00 -4°C° 0 mm 3 mps 734 mmHg 79%
    01:00 -4°C° 0 mm 3 mps 734 mmHg 80%
    02:00 -5°C° 0 mm 3 mps 734 mmHg 80%
    03:00 -5°C° 0 mm 3 mps 734 mmHg 79%
    04:00 -5°C° 0 mm 3 mps 734 mmHg 79%
    05:00 -5°C° 0 mm 3 mps 734 mmHg 80%
    06:00 -5°C° 0 mm 3 mps 735 mmHg 80%
    07:00 -5°C° 0 mm 3 mps 735 mmHg 80%
    08:00 -5°C° 0 mm 3 mps 735 mmHg 78%
    09:00 -4°C° 0 mm 3 mps 735 mmHg 76%
    10:00 -4°C° 0 mm 3 mps 736 mmHg 74%
    11:00 -2°C° 0 mm 3 mps 736 mmHg 71%
    12:00 -2°C° 0 mm 3 mps 736 mmHg 68%
    13:00 -1°C° 0 mm 2 mps 736 mmHg 65%
    14:00 -1°C° 0 mm 2 mps 736 mmHg 67%
    15:00 -2°C° 0 mm 2 mps 736 mmHg 70%
    16:00 -2°C° 0 mm 2 mps 736 mmHg 73%
    17:00 -1°C° 0 mm 1 mps 737 mmHg 76%
    18:00 -1°C° 0 mm 1 mps 737 mmHg 78%
    19:00 -2°C° 0 mm 1 mps 738 mmHg 81%
    20:00 -2°C° 0 mm 1 mps 738 mmHg 82%
    21:00 -2°C° 0 mm 1 mps 738 mmHg 82%
    22:00 -2°C° 0 mm 1 mps 738 mmHg 83%
    23:00 -2°C° 0 mm 1 mps 739 mmHg 83%

    15 December, Saturday

    Time Temperature Precipitation Wind Pressure Humidity
    00:00 -2°C° 0 mm 1 mps 739 mmHg 83%
    01:00 -2°C° 0 mm 1 mps 739 mmHg 83%
    02:00 -2°C° 0 mm 1 mps 739 mmHg 83%
    03:00 -4°C° 0 mm 0 mps 739 mmHg 84%
    04:00 -4°C° 0 mm 0 mps 739 mmHg 84%
    05:00 -4°C° 0 mm 0 mps 739 mmHg 84%
    06:00 -4°C° 0 mm 0 mps 739 mmHg 84%
    07:00 -4°C° 0 mm 0 mps 740 mmHg 84%
    08:00 -3°C° 0 mm 0 mps 740 mmHg 81%
    09:00 -3°C° 0 mm 0 mps 740 mmHg 78%
    10:00 -2°C° 0 mm 0 mps 740 mmHg 75%
    11:00 -2°C° 0 mm 0 mps 740 mmHg 71%
    12:00 -1°C° 0 mm 0 mps 740 mmHg 66%
    13:00 +1°C° 0 mm 1 mps 740 mmHg 61%
    14:00 +1°C° 0 mm 1 mps 740 mmHg 65%
    15:00 0°C° 0 mm 1 mps 739 mmHg 68%
    16:00 -1°C° 0 mm 1 mps 739 mmHg 71%
    17:00 -1°C° 0 mm 1 mps 739 mmHg 73%
    18:00 -1°C° 0 mm 1 mps 739 mmHg 75%
    19:00 -2°C° 0 mm 1 mps 739 mmHg 76%
    20:00 -2°C° 0 mm 1 mps 739 mmHg 76%
    21:00 -1°C° 0 mm 1 mps 739 mmHg 75%
    22:00 -1°C° 0 mm 1 mps 739 mmHg 75%
    23:00 -1°C° 0 mm 1 mps 738 mmHg 75%
    Show more